Regional Weather Roundup
Issued by NWS

Home | Current Version | Previous Version | Text Only | Print | Product List | Glossary Off
Versions: 1 2 3 4 5 6 7 8 9 10 11 12 13 14 15 16 17 18 19 20 21 22 23 24 25 26 27 28 29 30 31 32 33 34 35 36 37 38 39 40 41 42 43 44 45 46 47 48 49 50

000
ASUS45 KCYS 270710
RWRWY

WYOMING REGIONAL WEATHER ROUNDUP
NATIONAL WEATHER SERVICE CHEYENNE WY
100 AM MDT MON JUL 27 2015

NOTE:  "FAIR" INDICATES FEW OR NO CLOUDS BELOW 12,000 FEET
WITH NO SIGNIFICANT WEATHER AND/OR OBSTRUCTIONS TO VISIBILITY.

WYZ001-270800-
YELLOWSTONE NATIONAL PARK

CITY           SKY/WX    TMP DP  RH WIND       PRES   REMARKS
LK YELLOWSTONE   N/A     45  37  73 NW3       30.08F
W YELLOWSTONE  NOT AVBL

$$
WYZ002>013-054>058-071-098>099-270800-
NORTHERN WYOMING

CITY           SKY/WX    TMP DP  RH WIND       PRES   REMARKS
JACKSON        FAIR      54  45  71 N7        29.97F
CODY           FAIR      70  39  32 SW7       29.86F
GREYBULL       FAIR      70  39  32 SW5       29.75S
WORLAND        FAIR      68  40  35 S9        29.78S
SHERIDAN       FAIR      57  47  69 S6        29.79F
BUFFALO        FAIR      66  41  40 NW6       29.86F
GILLETTE       FAIR      72  54  53 S16       29.82S
HULETT         FAIR      68  59  73 E7        29.90S
NEWCASTLE      FAIR      70  52  52 SE18      29.91F

$$
WYZ014>020-022>026-101>103-270800-
CENTRAL WYOMING

CITY           SKY/WX    TMP DP  RH WIND       PRES   REMARKS
BIG PINEY      FAIR      48  29  47 N10       30.04F
PINEDALE       FAIR      50  32  50 E3        30.05F
DUBOIS         FAIR      52  28  40 NW13      30.04S
LANDER         FAIR      76  25  15 SW14      29.89F
RIVERTON       FAIR      71  25  17 NW5       29.90F
CASPER         FAIR      62  35  36 SE5       29.89F
DOUGLAS        FAIR      69  53  56 SE21G28   29.92S

$$
WYZ021-027>030-104>119-270800-
SOUTHERN WYOMING

CITY           SKY/WX    TMP DP  RH WIND       PRES   REMARKS
EVANSTON       FAIR      61  30  31 S9        30.04S
KEMMERER       FAIR      59  27  29 N5        30.05F
FORT BRIDGER   SUNNY     68  32  26 S15       30.06S
ROCK SPRINGS   FAIR      70  39  32 S12       30.04F
DIXON          FAIR      71  38  30 SE7       30.11S
RAWLINS        FAIR      67  37  33 SW6       30.07S
SARATOGA       FAIR      61  39  44 NE3       30.11S
LARAMIE        FAIR      59  52  77 S20       30.12S
CHEYENNE       FAIR      60  54  80 SW9       30.07F
TORRINGTON     FAIR      63  58  83 E9        29.94F
PINE BLUFFS    FAIR      61  54  77 SW7       30.04S

$$


USA.gov is the U.S. government's official web portal to all federal, state and local government web resources and services.